| time (UTC) | temp F | wind direction | speed MPH | gust MPH | rain 1hr in | rain 24hr in | rain mn in | humidity % | barometer mb |
| 20260506081802 | 46 | 180 | 0.0 | 0.0 | 0.01 | 0.86 | 0.01 | 94 | 1012.4 |
| 20260506081302 | 46 | 180 | 0.0 | 0.0 | 0.01 | 0.86 | 0.01 | 94 | 1012.6 |
| 20260506080802 | 46 | 140 | 0.0 | 0.0 | 0.01 | 0.86 | 0.01 | 94 | 1012.7 |
| 20260506080302 | 46 | 111 | 0.0 | 0.0 | 0.01 | 0.87 | 0.01 | 94 | 1012.7 |
| 20260506073302 | 46 | 111 | 0.0 | 0.0 | 0.01 | 1.01 | 0.01 | 94 | 1012.4 |
| 20260506071802 | 46 | 111 | 0.0 | 0.0 | 0.00 | 1.01 | 0.00 | 94 | 1012.2 |
| 20260506071302 | 46 | 111 | 0.0 | 0.0 | 0.00 | 1.01 | 0.00 | 94 | 1012.4 |
| 20260506070302 | 46 | 111 | 0.0 | 0.0 | 0.00 | 1.01 | 0.00 | 94 | 1012.2 |
| 20260506061802 | 46 | 111 | 0.0 | 0.0 | 0.00 | 1.01 | 0.00 | 94 | 1012.2 |
| 20260506060802 | 46 | 10 | 0.0 | 0.0 | 0.00 | 1.01 | 0.00 | 94 | 1012.0 |
| 20260506060303 | 46 | 10 | 0.0 | 0.0 | 0.00 | 1.01 | 0.00 | 94 | 1012.1 |
| 20260506051302 | 46 | 10 | 0.0 | 0.0 | 0.00 | 1.01 | 0.00 | 94 | 1011.5 |
| 20260506050802 | 46 | 10 | 0.0 | 0.0 | 0.00 | 1.01 | 0.00 | 94 | 1011.4 |
| 20260506044802 | 46 | 10 | 0.0 | 0.0 | 0.00 | 1.01 | 1.01 | 94 | 1011.5 |
| 20260506044303 | 46 | 10 | 0.0 | 0.0 | 0.00 | 1.01 | 1.01 | 94 | 1011.7 |
| 20260506043803 | 46 | 10 | 0.0 | 0.0 | 0.00 | 1.01 | 1.01 | 94 | 1011.7 |
| 20260506043303 | 46 | 10 | 0.0 | 0.0 | 0.00 | 1.01 | 1.01 | 94 | 1011.6 |
| 20260506041803 | 46 | 10 | 0.0 | 0.0 | 0.00 | 1.01 | 1.01 | 94 | 1011.2 |
| 20260506040803 | 46 | 10 | 0.0 | 0.0 | 0.01 | 1.01 | 1.01 | 94 | 1011.4 |
| 20260506040302 | 46 | 10 | 0.0 | 0.0 | 0.01 | 1.01 | 1.01 | 94 | 1011.2 |
| 20260506034803 | 46 | 10 | 0.0 | 0.0 | 0.02 | 1.01 | 1.01 | 94 | 1011.7 |
| 20260506034303 | 46 | 10 | 0.0 | 0.0 | 0.02 | 1.01 | 1.01 | 94 | 1011.7 |
| 20260506033302 | 46 | 10 | 0.0 | 0.0 | 0.02 | 1.01 | 1.01 | 94 | 1011.2 |
| 20260506031803 | 46 | 10 | 0.0 | 0.0 | 0.03 | 1.01 | 1.01 | 94 | 1011.4 |
| 20260506031303 | 46 | 10 | 0.0 | 0.0 | 0.03 | 1.01 | 1.01 | 94 | 1011.4 |
| 20260506030803 | 46 | 10 | 0.0 | 0.0 | 0.02 | 1.00 | 1.00 | 94 | 1011.2 |
| 20260506024802 | 46 | 10 | 0.0 | 0.0 | 0.02 | 0.99 | 0.99 | 94 | 1011.3 |
| 20260506024303 | 46 | 10 | 0.0 | 0.0 | 0.02 | 0.99 | 0.99 | 94 | 1011.4 |
| 20260506023302 | 46 | 10 | 0.0 | 0.0 | 0.04 | 0.99 | 0.99 | 94 | 1011.0 |
| 20260506021303 | 45 | 10 | 0.0 | 0.0 | 0.07 | 0.98 | 0.98 | 93 | 1010.4 |
| 20260506020803 | 45 | 10 | 0.0 | 0.0 | 0.07 | 0.98 | 0.98 | 93 | 1010.2 |
| 20260506020302 | 45 | 10 | 0.0 | 0.0 | 0.08 | 0.98 | 0.98 | 93 | 1010.2 |
| 20260506014802 | 46 | 10 | 0.0 | 0.0 | 0.08 | 0.97 | 0.97 | 93 | 1010.1 |
| 20260506014302 | 46 | 10 | 0.0 | 0.0 | 0.08 | 0.97 | 0.97 | 93 | 1010.1 |
| 20260506013302 | 46 | 10 | 0.0 | 0.0 | 0.08 | 0.95 | 0.95 | 93 | 1010.1 |
| 20260506011803 | 46 | 10 | 0.0 | 0.0 | 0.06 | 0.92 | 0.92 | 93 | 1010.3 |
| 20260506011303 | 46 | 10 | 0.0 | 0.0 | 0.06 | 0.91 | 0.91 | 93 | 1010.1 |
| 20260506010803 | 46 | 10 | 0.0 | 0.0 | 0.06 | 0.91 | 0.91 | 93 | 1009.9 |
| 20260506010303 | 46 | 10 | 0.0 | 0.0 | 0.05 | 0.90 | 0.90 | 93 | 1010.0 |
| 20260506004803 | 45 | 10 | 0.0 | 0.0 | 0.07 | 0.89 | 0.89 | 93 | 1009.9 |
| 20260506004303 | 45 | 10 | 0.0 | 0.0 | 0.08 | 0.89 | 0.89 | 93 | 1009.7 |
| 20260506003803 | 45 | 10 | 0.0 | 0.0 | 0.08 | 0.88 | 0.88 | 93 | 1009.7 |
| 20260506003302 | 45 | 10 | 0.0 | 0.0 | 0.08 | 0.87 | 0.87 | 93 | 1009.5 |
| 20260506001802 | 45 | 10 | 0.0 | 0.0 | 0.09 | 0.86 | 0.86 | 93 | 1009.5 |
| 20260506001303 | 45 | 10 | 0.0 | 0.0 | 0.09 | 0.85 | 0.85 | 93 | 1009.2 |
| 20260506000302 | 45 | 10 | 0.0 | 0.0 | 0.10 | 0.85 | 0.85 | 93 | 1009.2 |
| 20260505234803 | 45 | 10 | 0.0 | 0.0 | 0.08 | 0.82 | 0.82 | 92 | 1009.7 |
| 20260505234303 | 46 | 10 | 0.0 | 0.0 | 0.07 | 0.81 | 0.81 | 93 | 1009.7 |
| 20260505233803 | 45 | 10 | 0.0 | 0.0 | 0.07 | 0.80 | 0.80 | 93 | 1009.7 |
| 20260505233303 | 45 | 10 | 0.0 | 0.0 | 0.06 | 0.79 | 0.79 | 93 | 1009.3 |
| 20260505231303 | 45 | 9 | 0.0 | 0.0 | 0.04 | 0.76 | 0.76 | 92 | 1009.4 |
| 20260505230303 | 45 | 31 | 0.0 | 0.0 | 0.04 | 0.75 | 0.75 | 92 | 1009.7 |
| 20260505224802 | 45 | 31 | 0.0 | 0.0 | 0.06 | 0.74 | 0.74 | 92 | 1009.7 |
| 20260505224303 | 45 | 290 | 0.0 | 0.0 | 0.07 | 0.74 | 0.74 | 92 | 1009.6 |
| 20260505223802 | 45 | 21 | 0.0 | 0.0 | 0.07 | 0.73 | 0.73 | 92 | 1009.6 |
| 20260505223303 | 45 | 21 | 0.0 | 0.0 | 0.08 | 0.73 | 0.73 | 92 | 1009.9 |
| 20260505221803 | 45 | 21 | 0.0 | 0.0 | 0.12 | 0.73 | 0.73 | 92 | 1009.2 |
| 20260505221303 | 45 | 48 | 0.0 | 2.0 | 0.11 | 0.72 | 0.72 | 91 | 1009.1 |
| 20260505220803 | 45 | 5 | 0.0 | 0.0 | 0.11 | 0.72 | 0.72 | 91 | 1009.1 |
| 20260505220303 | 45 | 13 | 0.0 | 3.0 | 0.10 | 0.71 | 0.71 | 90 | 1009.5 |
| 20260505214803 | 45 | 21 | 0.0 | 2.0 | 0.09 | 0.68 | 0.68 | 90 | 1009.0 |
| 20260505213803 | 46 | 63 | 0.0 | 0.0 | 0.08 | 0.66 | 0.66 | 90 | 1008.7 |
| 20260505213303 | 46 | 29 | 0.0 | 0.0 | 0.07 | 0.65 | 0.65 | 91 | 1008.6 |
| 20260505211304 | 47 | 352 | 0.0 | 0.0 | 0.05 | 0.61 | 0.61 | 91 | 1008.7 |
| 20260505210803 | 47 | 350 | 0.0 | 0.0 | 0.05 | 0.61 | 0.61 | 91 | 1008.8 |
| 20260505210303 | 47 | 4 | 0.0 | 0.0 | 0.05 | 0.61 | 0.61 | 91 | 1008.6 |
| 20260505204802 | 47 | 2 | 0.0 | 5.0 | 0.03 | 0.59 | 0.59 | 90 | 1008.9 |
| 20260505204303 | 47 | 357 | 0.0 | 2.0 | 0.03 | 0.59 | 0.59 | 90 | 1008.7 |
| 20260505203802 | 47 | 36 | 0.0 | 0.0 | 0.02 | 0.58 | 0.58 | 89 | 1009.0 |
| 20260505203302 | 47 | 330 | 0.0 | 0.0 | 0.03 | 0.58 | 0.58 | 90 | 1009.3 |
| 20260505201803 | 47 | 22 | 0.0 | 8.0 | 0.03 | 0.57 | 0.57 | 89 | 1008.8 |
| 20260505201303 | 48 | 12 | 0.0 | 0.0 | 0.02 | 0.56 | 0.56 | 90 | 1009.2 |
| 20260505200804 | 48 | 300 | 0.0 | 0.0 | 0.03 | 0.56 | 0.56 | 91 | 1009.3 |
| 20260505194803 | 48 | 352 | 0.0 | 0.0 | 0.04 | 0.56 | 0.56 | 89 | 1009.1 |
| 20260505194303 | 48 | 355 | 0.0 | 0.0 | 0.04 | 0.56 | 0.56 | 90 | 1009.2 |
| 20260505193303 | 48 | 16 | 0.0 | 6.0 | 0.04 | 0.55 | 0.55 | 90 | 1008.9 |
| 20260505191803 | 48 | 6 | 0.0 | 5.0 | 0.05 | 0.54 | 0.54 | 88 | 1009.9 |
| 20260505190802 | 48 | 23 | 0.0 | 1.0 | 0.04 | 0.53 | 0.53 | 88 | 1009.2 |
| 20260505190302 | 48 | 3 | 0.0 | 1.0 | 0.04 | 0.53 | 0.53 | 89 | 1009.1 |
| 20260505184803 | 48 | 310 | 0.0 | 0.0 | 0.03 | 0.52 | 0.52 | 90 | 1009.6 |
| 20260505183802 | 48 | 0 | 0.0 | 2.0 | 0.03 | 0.52 | 0.52 | 89 | 1009.5 |
| 20260505183302 | 48 | 57 | 0.0 | 6.0 | 0.03 | 0.51 | 0.51 | 90 | 1009.2 |
| 20260505181803 | 47 | 17 | 0.0 | 0.0 | 0.01 | 0.49 | 0.49 | 88 | 1009.4 |
| 20260505181302 | 47 | 355 | 0.0 | 1.0 | 0.01 | 0.49 | 0.49 | 88 | 1009.7 |
| 20260505180803 | 48 | 8 | 0.0 | 0.0 | 0.02 | 0.49 | 0.49 | 86 | 1009.4 |
| 20260505180303 | 48 | 354 | 0.0 | 1.0 | 0.02 | 0.49 | 0.49 | 86 | 1009.2 |
| 20260505174803 | 49 | 18 | 0.0 | 3.0 | 0.04 | 0.49 | 0.49 | 88 | 1008.9 |
| 20260505173803 | 49 | 328 | 0.0 | 2.0 | 0.06 | 0.49 | 0.49 | 88 | 1009.2 |
| 20260505171803 | 50 | 354 | 0.0 | 1.0 | 0.06 | 0.48 | 0.48 | 89 | 1009.1 |
| 20260505170803 | 49 | 2 | 0.0 | 3.0 | 0.05 | 0.47 | 0.47 | 87 | 1008.5 |
| 20260505170303 | 49 | 320 | 0.0 | 2.0 | 0.05 | 0.47 | 0.47 | 87 | 1008.3 |
| 20260505164802 | 50 | 15 | 0.0 | 0.0 | 0.03 | 0.45 | 0.45 | 87 | 1009.8 |
| 20260505164302 | 51 | 342 | 0.0 | 0.0 | 0.02 | 0.44 | 0.44 | 87 | 1010.0 |
| 20260505163803 | 51 | 275 | 0.0 | 1.0 | 0.01 | 0.43 | 0.43 | 85 | 1010.2 |
| 20260505163303 | 51 | 323 | 0.0 | 1.0 | 0.00 | 0.42 | 0.42 | 85 | 1009.9 |
| 20260505161303 | 51 | 9 | 0.0 | 0.0 | 0.00 | 0.42 | 0.42 | 83 | 1009.8 |
| 20260505160803 | 51 | 9 | 0.0 | 0.0 | 0.00 | 0.42 | 0.42 | 84 | 1009.5 |
| 20260505160303 | 52 | 9 | 0.0 | 0.0 | 0.00 | 0.42 | 0.42 | 82 | 1009.4 |
| 20260505153303 | 52 | 299 | 0.0 | 0.0 | 0.00 | 0.42 | 0.42 | 75 | 1008.4 |
| 20260505151803 | 52 | 12 | 0.0 | 8.0 | 0.00 | 0.42 | 0.42 | 79 | 1007.6 |
| 20260505151303 | 52 | 5 | 0.0 | 1.0 | 0.00 | 0.42 | 0.42 | 82 | 1007.5 |
| 20260505150803 | 51 | 3 | 0.0 | 3.0 | 0.00 | 0.42 | 0.42 | 83 | 1007.4 |
| 20260505150303 | 51 | 24 | 0.0 | 2.0 | 0.00 | 0.42 | 0.42 | 81 | 1007.4 |
| 20260505140303 | 51 | 7 | 0.0 | 1.0 | 0.00 | 0.42 | 0.42 | 85 | 1007.4 |
| 20260505130303 | 49 | 34 | 0.0 | 1.0 | 0.00 | 0.42 | 0.42 | 89 | 1007.1 |
| 20260505124803 | 49 | 22 | 0.0 | 1.0 | 0.00 | 0.42 | 0.42 | 90 | 1007.1 |
| 20260505124303 | 49 | 12 | 0.0 | 0.0 | 0.00 | 0.42 | 0.42 | 90 | 1007.4 |
| 20260505123804 | 49 | 337 | 0.0 | 0.0 | 0.00 | 0.42 | 0.42 | 89 | 1007.4 |
| 20260505121803 | 49 | 23 | 0.0 | 1.0 | 0.00 | 0.42 | 0.42 | 89 | 1007.4 |
| 20260505121303 | 49 | 329 | 0.0 | 0.0 | 0.01 | 0.42 | 0.42 | 89 | 1007.2 |
| 20260505120802 | 49 | 346 | 0.0 | 2.0 | 0.02 | 0.42 | 0.42 | 90 | 1007.3 |
| 20260505120303 | 49 | 316 | 0.0 | 3.0 | 0.03 | 0.42 | 0.42 | 90 | 1007.4 |
| 20260505114804 | 48 | 337 | 0.0 | 3.0 | 0.05 | 0.42 | 0.42 | 88 | 1006.4 |
| 20260505114302 | 48 | 17 | 0.0 | 2.0 | 0.07 | 0.42 | 0.42 | 89 | 1006.0 |
| 20260505113802 | 48 | 2 | 0.0 | 2.0 | 0.09 | 0.42 | 0.42 | 88 | 1005.8 |
| 20260505113303 | 48 | 49 | 1.0 | 10.0 | 0.10 | 0.42 | 0.42 | 88 | 1005.5 |
| 20260505111803 | 49 | 46 | 0.0 | 9.0 | 0.13 | 0.42 | 0.42 | 88 | 1005.8 |
| 20260505111303 | 49 | 352 | 0.0 | 1.0 | 0.14 | 0.41 | 0.41 | 90 | 1006.4 |
| 20260505110803 | 49 | 313 | 0.0 | 3.0 | 0.15 | 0.40 | 0.40 | 90 | 1005.1 |
| 20260505110303 | 49 | 357 | 0.0 | 3.0 | 0.15 | 0.39 | 0.39 | 90 | 1005.7 |
| 20260505101803 | 50 | 356 | 0.0 | 14.0 | 0.12 | 0.29 | 0.29 | 87 | 1007.1 |
| 20260505101303 | 51 | 312 | 0.0 | 13.0 | 0.10 | 0.27 | 0.27 | 88 | 1006.8 |
| 20260505100803 | 51 | 324 | 0.0 | 3.0 | 0.08 | 0.25 | 0.25 | 88 | 1007.1 |
| 20260505100302 | 51 | 325 | 0.0 | 6.0 | 0.07 | 0.24 | 0.24 | 86 | 1007.1 |
| 20260505094803 | 52 | 312 | 1.0 | 10.0 | 0.05 | 0.22 | 0.22 | 85 | 1006.2 |
| 20260505094303 | 52 | 341 | 0.0 | 3.0 | 0.04 | 0.21 | 0.21 | 88 | 1005.7 |
| 20260505093303 | 53 | 22 | 0.0 | 7.0 | 0.01 | 0.17 | 0.17 | 86 | 1005.7 |
| 20260505091803 | 53 | 345 | 1.0 | 8.0 | 0.01 | 0.17 | 0.17 | 82 | 1004.9 |
| 20260505091303 | 54 | 10 | 0.0 | 5.0 | 0.01 | 0.17 | 0.17 | 83 | 1004.5 |
| 20260505090803 | 54 | 334 | 0.0 | 12.0 | 0.01 | 0.17 | 0.17 | 82 | 1004.4 |
| 20260505090303 | 55 | 10 | 1.0 | 18.0 | 0.02 | 0.17 | 0.17 | 80 | 1004.4 |
| 20260505084803 | 57 | 337 | 0.0 | 3.0 | 0.14 | 0.17 | 0.17 | 85 | 1004.3 |
| 20260505084303 | 57 | 315 | 2.0 | 10.0 | 0.14 | 0.17 | 0.17 | 85 | 1003.9 |
| 20260505083803 | 57 | 12 | 0.0 | 10.0 | 0.15 | 0.17 | 0.17 | 88 | 1003.9 |
| 20260505083303 | 58 | 354 | 0.0 | 8.0 | 0.15 | 0.16 | 0.16 | 88 | 1003.9 |